Regional Weather Roundup
Issued by NWS Spokane, WA

Home | Current Version | Previous Version | Text Only | Print | Product List | Glossary On
Versions: 1 2 3 4 5 6 7 8 9 10 11 12 13 14 15 16 17 18 19 20 21 22 23 24 25 26 27 28 29 30 31 32 33 34 35 36 37 38 39 40 41 42 43 44 45 46 47 48 49 50
000
NZUS01 KOTX 111400
RWROTX

Eastern Washington/Northern Idaho Roundup
National Weather Service, Spokane WA
600 AM PST MON DEC 11 2017

Note: "fair" indicated few or no clouds below 12,000 feet with no
significant weather and/or obstructions to visibility.

...Northeast Washington and Northern Idaho Panhandle...

CITY           SKY/WX    TMP DP  RH WIND       PRES   REMARKS
Spokane Intl   CLOUDY    24  23  96 N5        30.58F WCI  18
Spokane Downto CLOUDY    26  23  88 CALM      30.62R
Coeur d Alene  CLOUDY    25  21  85 E8        30.59S WCI  16
Deer Park      PTCLDY    15  11  83 CALM      30.60F

...Southeast Washington and southern Idaho Panhandle...

CITY           SKY/WX    TMP DP  RH WIND       PRES   REMARKS
Walla Walla    FLURRIES  29  25  85 W3        30.64S
Pullman/Moscow FOG       22  19  89 CALM      30.58S VSB 1/2
Lowell           N/A     23  21  92 CALM      30.67S

...Columbia Basin...

CITY           SKY/WX    TMP DP  RH WIND       PRES   REMARKS
Ephrata        CLOUDY    31  22  69 N3        30.64F
Moses Lake     CLOUDY    31  25  78 E3        30.66S
Pasco          CLOUDY    31  27  85 CALM      30.71S
Hermiston      CLOUDY    31  27  85 CALM      30.67S
Pendleton      CLOUDY    27  25  92 NW3       30.61S

...East Slopes Cascades...

CITY           SKY/WX    TMP DP  RH WIND       PRES   REMARKS
The Dalles     CLOUDY    34  25  69 SE10      30.70S WCI  26
Yakima         CLOUDY    32  25  75 CALM      30.66S
Ellensburg       N/A    N/A N/A N/A MISG      30.61F
Wenatchee      CLOUDY    29  24  82 CALM      30.65F
Omak           CLOUDY    28  25  88 W6        30.66S WCI  22
Sunnyside      CLOUDY    29  26  85 W5        30.67S WCI  24

...Southern British Columbia...

CITY           SKY/WX    TMP DP  RH WIND       PRES   REMARKS

...Western Montana...

CITY           SKY/WX    TMP DP  RH WIND       PRES   REMARKS
Kalispell      CLOUDY    23  20  88 NW3       30.63S
Missoula       CLOUDY    17  14  88 SW3       30.63S FOG

...Neighboring Cities...

CITY           SKY/WX    TMP DP  RH WIND       PRES   REMARKS
Seattle        FOG       32  31  96 E6        30.33S VSB 1/4 WCI  26
Portland       CLEAR     36  25  64 E14       30.39F
Boise          CLOUDY    23  21  92 CALM      30.67S
Great Falls    CLOUDY    32  15  49 SW16      30.40F WCI  21



USA.gov is the U.S. government's official web portal to all federal, state and local government web resources and services.